Weather History for Paynesville, MN

Change the Weather History Date:

Tuesday, April 23, 2013

  Actual Average (KLJF) Record (KLJF)
Temperature  
Mean Temperature 27 °F -  
Max Temperature 35 °F 61 °F 87 °F (2009)
Min Temperature 19 °F 38 °F 20 °F (1967)
Degree Days  
Heating Degree Days 38    
Moisture  
Dew Point 20 °F    
Average Humidity 72    
Maximum Humidity 88    
Minimum Humidity 53    
Precipitation  
Precipitation 0.00 in - - ()
Sea Level Pressure  
Sea Level Pressure 30.15 in    
Wind  
Wind Speed 10 mph (WNW)    
Max Wind Speed 15 mph    
Max Gust Speed 22 mph    
Visibility 10 miles    
Events      
Averages and records for this station are not official NWS values.
T = Trace of Precipitation, MM = Missing Value Source: NWS Daily Summary

Daily Weather History Graph

Daily Weather History Graph

Search for Another Location

Airport:

Trip Planner

Search our weather history database for the weather conditions in past years. The results will help you decide how hot, cold, wet, or windy it might be!

Date:

Astronomy

Apr. 23, 2013 Rise Set
Actual Time 6:19 AM CDT 8:15 PM CDT
Civil Twilight 5:47 AM CDT 8:47 PM CDT
Nautical Twilight 5:09 AM CDT 9:26 PM CDT
Astronomical Twilight 4:26 AM CDT 10:09 PM CDT
Moon 6:06 PM CDT 4:54 AM CDT
Length of Visible Light 14h 59m
Length of Day
13h 56m
Waxing Gibbous, 94% of the Moon is Illuminated
Apr 23
Waxing Gibbous
Apr 25
Full
May 2
Last Quarter
May 9
New
May 17
First Quarter

Hourly Weather History & Observations

Time (CDT) Temp. Windchill Dew Point Humidity Pressure Visibility Wind Dir Wind Speed Gust Speed Precip Events Conditions
12:13 AM 28.8 °F 20.2 °F 23.9 °F 82% 30.21 in 10.0 mi NW 9.2 mph - N/A   Scattered Clouds
12:33 AM 28.4 °F 19.1 °F 23.5 °F 82% 30.21 in 10.0 mi NW 10.4 mph - N/A   Mostly Cloudy
12:53 AM 28.4 °F 19.1 °F 23.7 °F 83% 30.21 in 10.0 mi NW 10.4 mph - N/A   Scattered Clouds
1:13 AM 28.4 °F 17.0 °F 23.5 °F 82% 30.21 in 10.0 mi NW 15.0 mph 19.6 mph N/A   Scattered Clouds
1:33 AM 28.2 °F 17.7 °F 23.4 °F 82% 30.21 in 10.0 mi NW 12.7 mph 19.6 mph N/A   Scattered Clouds
1:53 AM 28.0 °F 18.1 °F 22.8 °F 81% 30.21 in 10.0 mi NW 11.5 mph 18.4 mph N/A   Scattered Clouds
2:13 AM 27.5 °F 18.0 °F 22.1 °F 80% 30.21 in 10.0 mi NW 10.4 mph - N/A   Clear
2:33 AM 27.1 °F 16.9 °F 21.7 °F 80% 30.20 in 10.0 mi NW 11.5 mph 16.1 mph N/A   Clear
2:53 AM 26.4 °F 16.6 °F 21.0 °F 80% 30.20 in 10.0 mi NW 10.4 mph 18.4 mph N/A   Clear
3:13 AM 25.2 °F 15.1 °F 20.1 °F 81% 30.19 in 10.0 mi NW 10.4 mph 16.1 mph N/A   Clear
3:33 AM 23.9 °F 13.5 °F 19.2 °F 82% 30.18 in 10.0 mi NW 10.4 mph 17.3 mph N/A   Clear
3:53 AM 23.5 °F 13.0 °F 18.9 °F 82% 30.18 in 10.0 mi NW 10.4 mph - N/A   Clear
4:13 AM 23.0 °F 13.1 °F 18.5 °F 83% 30.17 in 10.0 mi NW 9.2 mph - N/A   Scattered Clouds
4:33 AM 22.8 °F 12.9 °F 18.0 °F 82% 30.18 in 10.0 mi NW 9.2 mph - N/A   Scattered Clouds
4:53 AM 22.3 °F 11.5 °F 17.4 °F 82% 30.18 in 10.0 mi NW 10.4 mph - N/A   Clear
5:13 AM 21.7 °F 11.5 °F 16.7 °F 81% 30.18 in 10.0 mi NW 9.2 mph - N/A   Clear
5:33 AM 21.2 °F 11.7 °F 16.5 °F 82% 30.18 in 10.0 mi NW 8.1 mph - N/A   Clear
5:53 AM 21.2 °F 11.7 °F 16.5 °F 82% 30.18 in 10.0 mi NW 8.1 mph - N/A   Clear
6:13 AM 21.2 °F 12.6 °F 16.5 °F 82% 30.19 in 10.0 mi WNW 6.9 mph - N/A   Clear
6:33 AM 20.3 °F 11.5 °F 15.6 °F 82% 30.20 in 10.0 mi West 6.9 mph - N/A   Clear
6:53 AM 19.9 °F 11.1 °F 15.3 °F 82% 30.19 in 10.0 mi WNW 6.9 mph - N/A   Clear
7:13 AM 20.7 °F 11.0 °F 15.8 °F 81% 30.19 in 10.0 mi NW 8.1 mph - N/A   Clear
7:33 AM 21.2 °F 11.7 °F 15.8 °F 80% 30.19 in 10.0 mi NW 8.1 mph - N/A   Clear
7:53 AM 21.6 °F 10.6 °F 15.8 °F 78% 30.19 in 10.0 mi NW 10.4 mph - N/A   Clear
8:13 AM 22.1 °F 10.6 °F 16.2 °F 78% 30.19 in 10.0 mi NW 11.5 mph 16.1 mph N/A   Clear
8:33 AM 22.6 °F 12.6 °F 16.2 °F 76% 30.20 in 10.0 mi NW 9.2 mph - N/A   Clear
8:53 AM 23.0 °F 13.9 °F 16.3 °F 76% 30.19 in 10.0 mi NW 8.1 mph - N/A   Clear
9:13 AM 23.7 °F 14.0 °F 16.7 °F 75% 30.20 in 10.0 mi NW 9.2 mph - N/A   Clear
9:33 AM 24.6 °F 15.1 °F 17.2 °F 74% 30.20 in 10.0 mi WNW 9.2 mph - N/A   Clear
9:53 AM 25.3 °F 16.0 °F 17.6 °F 72% 30.20 in 10.0 mi NW 9.2 mph - N/A   Clear
10:13 AM 26.2 °F 17.1 °F 18.0 °F 71% 30.20 in 10.0 mi NW 9.2 mph - N/A   Clear
10:33 AM 27.0 °F 16.1 °F 18.3 °F 70% 30.19 in 10.0 mi NW 12.7 mph - N/A   Clear
10:53 AM 27.5 °F 16.3 °F 18.3 °F 68% 30.18 in 10.0 mi NW 13.8 mph - N/A   Clear
11:13 AM 28.6 °F 19.3 °F 19.2 °F 68% 30.18 in 10.0 mi NW 10.4 mph - N/A   Clear
11:33 AM 29.5 °F 19.9 °F 19.4 °F 66% 30.18 in 10.0 mi NW 11.5 mph 17.3 mph N/A   Clear
11:53 AM 30.2 °F 20.2 °F 19.4 °F 64% 30.17 in 10.0 mi NW 12.7 mph 16.1 mph N/A   Clear
12:13 PM 31.1 °F 23.1 °F 19.6 °F 62% 30.17 in 10.0 mi NW 9.2 mph - N/A   Clear
12:33 PM 32.0 °F 23.6 °F 20.1 °F 62% 30.17 in 10.0 mi WNW 10.4 mph - N/A   Clear
12:53 PM 32.0 °F 22.1 °F 20.1 °F 62% 30.17 in 10.0 mi WNW 13.8 mph - N/A   Clear
1:13 PM 32.0 °F 22.1 °F 18.9 °F 58% 30.16 in 10.0 mi NW 13.8 mph - N/A   Clear
1:33 PM 32.0 °F 22.1 °F 19.0 °F 59% 30.16 in 10.0 mi WNW 13.8 mph 19.6 mph N/A   Clear
1:53 PM 32.5 °F 22.7 °F 17.8 °F 55% 30.15 in 10.0 mi WNW 13.8 mph - N/A   Clear
2:13 PM 33.1 °F 23.4 °F 18.1 °F 54% 30.14 in 10.0 mi WNW 13.8 mph 18.4 mph N/A   Clear
2:33 PM 33.8 °F 23.9 °F 18.3 °F 53% 30.14 in 10.0 mi NW 15.0 mph 18.4 mph N/A   Clear
2:53 PM 34.2 °F 24.8 °F 18.7 °F 53% 30.13 in 10.0 mi NW 13.8 mph 21.9 mph N/A   Clear
3:13 PM 34.2 °F 24.4 °F 20.1 °F 57% 30.13 in 10.0 mi WNW 15.0 mph - N/A   Clear
3:33 PM 34.9 °F 25.7 °F 20.3 °F 55% 30.13 in 10.0 mi NW 13.8 mph - N/A   Clear
3:53 PM 35.1 °F 26.9 °F 20.5 °F 55% 30.13 in 10.0 mi WNW 11.5 mph 16.1 mph N/A   Clear
4:12 PM 35.2 °F 27.1 °F 21.7 °F 58% 30.12 in 10.0 mi NW 11.5 mph - N/A   Clear
4:33 PM 35.1 °F 26.4 °F 20.8 °F 56% 30.11 in 10.0 mi WNW 12.7 mph - N/A   Clear
4:53 PM 35.2 °F 27.1 °F 21.6 °F 58% 30.11 in 10.0 mi WNW 11.5 mph 16.1 mph N/A   Clear
5:13 PM 35.4 °F 27.8 °F 22.6 °F 60% 30.11 in 10.0 mi WNW 10.4 mph - N/A   Clear
5:33 PM 35.2 °F 26.2 °F 21.9 °F 58% 30.11 in 10.0 mi NW 13.8 mph 17.3 mph N/A   Clear
5:53 PM 35.1 °F 26.9 °F 22.5 °F 60% 30.10 in 10.0 mi WNW 11.5 mph 17.3 mph N/A   Clear
6:13 PM 35.1 °F 27.4 °F 22.5 °F 60% 30.10 in 10.0 mi NW 10.4 mph - N/A   Clear
6:33 PM 34.9 °F 28.3 °F 22.6 °F 61% 30.09 in 10.0 mi NW 8.1 mph - N/A   Clear
6:53 PM 34.5 °F 28.6 °F 22.1 °F 61% 30.09 in 10.0 mi NW 6.9 mph - N/A   Clear
7:13 PM 34.2 °F 27.5 °F 22.3 °F 62% 30.09 in 10.0 mi NW 8.1 mph - N/A   Clear
7:33 PM 33.8 °F 27.0 °F 22.6 °F 64% 30.09 in 10.0 mi WNW 8.1 mph - N/A   Clear
7:53 PM 33.1 °F 27.7 °F 22.8 °F 66% 30.09 in 10.0 mi WNW 5.8 mph - N/A   Clear
8:13 PM 32.0 °F 27.5 °F 23.4 °F 70% 30.09 in 10.0 mi WNW 4.6 mph - N/A   Clear
8:33 PM 31.8 °F 27.3 °F 23.7 °F 72% 30.09 in 10.0 mi WNW 4.6 mph - N/A   Clear
8:53 PM 31.5 °F 26.8 °F 23.7 °F 73% 30.09 in 10.0 mi WNW 4.6 mph - N/A   Clear
9:13 PM 30.7 °F 24.9 °F 24.1 °F 76% 30.09 in 10.0 mi WNW 5.8 mph - N/A   Clear
9:33 PM 29.5 °F 25.9 °F 24.1 °F 80% 30.10 in 10.0 mi West 3.5 mph - N/A   Clear
9:53 PM 28.4 °F - 24.4 °F 85% 30.10 in 10.0 mi Calm Calm - N/A   Clear
10:13 PM 27.5 °F 22.2 °F 23.5 °F 85% 30.10 in 10.0 mi WSW 4.6 mph - N/A   Clear
10:33 PM 27.1 °F - 22.8 °F 84% 30.09 in 10.0 mi Calm Calm - N/A   Clear
10:53 PM 27.3 °F 23.4 °F 23.2 °F 84% 30.09 in 10.0 mi WSW 3.5 mph - N/A   Clear
11:13 PM 26.2 °F 22.1 °F 22.6 °F 86% 30.08 in 10.0 mi WSW 3.5 mph - N/A   Clear
11:33 PM 25.3 °F 21.1 °F 22.1 °F 87% 30.07 in 10.0 mi WSW 3.5 mph - N/A   Clear
11:53 PM 25.2 °F 19.5 °F 22.1 °F 88% 30.07 in 10.0 mi WSW 4.6 mph - N/A   Clear